H1 CPF 2 NER 2024 4 4 9 095 01 glonass127 H2 1106403 9127 37869 2024 4 4 0 0 0 2024 4 7 23 45 0 900 1 1 0 0 0 1 H9 10 0 60404 0.00000 0 5646392.357 -20612994.261 14014824.443 10 0 60404 900.00000 0 5669414.653 -18743015.700 16431383.821 10 0 60404 1800.00000 0 5870610.076 -16606190.804 18530815.017 10 0 60404 2700.00000 0 6278304.605 -14260060.152 20272769.904 10 0 60404 3600.00000 0 6909751.377 -11768223.684 21623780.085 10 0 60404 4500.00000 0 7770236.637 -9197884.161 22557877.734 10 0 60404 5400.00000 0 8852693.587 -6617258.399 23057077.840 10 0 60404 6300.00000 0 10137840.023 -4092960.538 23111714.371 10 0 60404 7200.00000 0 11594834.798 -1687462.451 22720625.020 10 0 60404 8100.00000 0 13182427.480 543266.820 21891181.298 10 0 60404 9000.00000 0 14850555.888 2551847.759 20639162.864 10 0 60404 9900.00000 0 16542328.101 4301218.928 18988477.141 10 0 60404 10800.00000 0 18196309.766 5765937.075 16970727.576 10 0 60404 11700.00000 0 19749024.636 6932995.244 14624636.223 10 0 60404 12600.00000 0 21137566.770 7802124.350 11995328.870 10 0 60404 13500.00000 0 22302217.249 8385564.407 9133493.541 10 0 60404 14400.00000 0 23188956.872 8707313.188 6094425.795 10 0 60404 15300.00000 0 23751769.269 8801881.799 2936977.029 10 0 60404 16200.00000 0 23954636.445 8712607.492 -277575.592 10 0 60404 17100.00000 0 23773140.426 8489593.278 -3486716.561 10 0 60404 18000.00000 0 23195600.457 8187360.391 -6627913.792 10 0 60404 18900.00000 0 22223694.206 7862312.861 -9639850.226 10 0 60404 19800.00000 0 20872533.087 7570122.424 -12463639.838 10 0 60404 20700.00000 0 19170185.098 7363146.405 -15044002.233 10 0 60404 21600.00000 0 17156662.470 7287990.550 -17330370.503 10 0 60404 22500.00000 0 14882414.798 7383323.213 -19277908.129 10 0 60404 23400.00000 0 12406390.088 7678036.817 -20848412.460 10 0 60404 24300.00000 0 9793745.229 8189837.597 -22011084.856 10 0 60404 25200.00000 0 7113302.867 8924326.122 -22743150.536 10 0 60404 26100.00000 0 4434862.862 9874609.534 -23030314.631 10 0 60404 27000.00000 0 1826482.815 11021463.162 -22867044.757 10 0 60404 27900.00000 0 -648156.702 12334035.051 -22256674.430 10 0 60404 28800.00000 0 -2932190.469 13771063.128 -21211325.706 10 0 60404 29700.00000 0 -4977707.667 15282552.404 -19751653.550 10 0 60404 30600.00000 0 -6747502.286 16811839.684 -17906418.359 10 0 60404 31500.00000 0 -8216362.626 18297956.631 -15711896.809 10 0 60404 32400.00000 0 -9371848.038 19678189.493 -13211144.631 10 0 60404 33300.00000 0 -10214523.324 20890725.787 -10453127.900 10 0 60404 34200.00000 0 -10757644.698 21877275.097 -7491742.068 10 0 60404 35100.00000 0 -11026314.665 22585552.963 -4384739.967 10 0 60404 36000.00000 0 -11056145.593 22971523.443 -1192591.497 10 0 60404 36900.00000 0 -10891492.220 23001306.909 2022701.325 10 0 60404 37800.00000 0 -10583330.916 22652674.559 5198810.007 10 0 60404 38700.00000 0 -10186877.587 21916069.027 8274282.236 10 0 60404 39600.00000 0 -9759046.077 20795110.763 11189718.520 10 0 60404 40500.00000 0 -9355854.514 19306571.420 13888901.127 10 0 60404 41400.00000 0 -9029888.161 17479817.488 16319855.157 10 0 60404 42300.00000 0 -8827923.980 15355748.918 18435823.405 10 0 60404 43200.00000 0 -8788814.634 12985277.698 20196138.790 10 0 60404 44100.00000 0 -8941718.394 10427409.354 21566980.232 10 0 60404 45000.00000 0 -9304746.939 7747005.857 22522000.066 10 0 60404 45900.00000 0 -9884085.884 5012320.548 23042813.246 10 0 60404 46800.00000 0 -10673623.827 2292404.323 23119340.797 10 0 60404 47700.00000 0 -11655105.333 -345512.833 22750002.041 10 0 60404 48600.00000 0 -12798802.396 -2838560.041 21941752.270 10 0 60404 49500.00000 0 -14064678.298 -5130581.628 20709964.651 10 0 60404 50400.00000 0 -15403997.878 -7174216.220 19078157.323 10 0 60404 51300.00000 0 -16761320.211 -8932614.575 17077568.913 10 0 60404 52200.00000 0 -18076793.692 -10380725.822 14746588.042 10 0 60404 53100.00000 0 -19288660.608 -11506098.626 12130044.951 10 0 60404 54000.00000 0 -20335868.772 -12309163.023 9278375.900 10 0 60404 54900.00000 0 -21160682.262 -12802979.592 6246673.687 10 0 60404 55800.00000 0 -21711182.077 -13012464.444 3093640.309 10 0 60404 56700.00000 0 -21943550.812 -12973120.482 -119539.687 10 0 60404 57600.00000 0 -21824043.265 -12729326.390 -3330384.278 10 0 60404 58500.00000 0 -21330557.104 -12332254.154 -6476334.555 10 0 60404 59400.00000 0 -20453733.807 -11837502.425 -9495986.367 10 0 60404 60300.00000 0 -19197539.589 -11302546.116 -12330307.620 10 0 60404 61200.00000 0 -17579298.012 -10784111.385 -14923815.449 10 0 60404 62100.00000 0 -15629169.524 -10335589.220 -17225687.860 10 0 60404 63000.00000 0 -13389097.175 -10004599.825 -19190785.587 10 0 60404 63900.00000 0 -10911261.171 -9830813.997 -20780561.605 10 0 60404 64800.00000 0 -8256106.462 -9844126.769 -21963838.212 10 0 60404 65700.00000 0 -5490026.404 -10063263.381 -22717434.629 10 0 60404 66600.00000 0 -2682800.641 -10494878.721 -23026631.387 10 0 60404 67500.00000 0 95103.915 -11133189.762 -22885461.654 10 0 60404 68400.00000 0 2775254.311 -11960157.050 -22296823.587 10 0 60404 69300.00000 0 5293879.476 -12946207.204 -21272411.895 10 0 60404 70200.00000 0 7594293.795 -14051464.772 -19832470.908 10 0 60404 71100.00000 0 9629014.504 -15227439.562 -18005375.357 10 0 60404 72000.00000 0 11361484.791 -16419096.016 -15827048.888 10 0 60404 72900.00000 0 12767331.921 -17567214.839 -13340233.726 10 0 60404 73800.00000 0 13835110.136 -18610945.009 -10593627.964 10 0 60404 74700.00000 0 14566500.450 -19490436.572 -7640909.593 10 0 60404 75600.00000 0 14975962.842 -20149441.932 -4539668.417 10 0 60404 76500.00000 0 15089859.672 -20537775.449 -1350268.520 10 0 60404 77400.00000 0 14945091.290 -20613527.986 1865335.068 10 0 60404 78300.00000 0 14587305.033 -20344944.269 5044801.578 10 0 60404 79200.00000 0 14068756.001 -19711885.781 8126607.840 10 0 60404 80100.00000 0 13445911.767 -18706819.908 11051226.741 10 0 60404 81000.00000 0 12776902.846 -17335296.102 13762258.990 10 0 60404 81900.00000 0 12118926.033 -15615891.237 16207497.973 10 0 60404 82800.00000 0 11525708.698 -13579628.114 18339909.264 10 0 60404 83700.00000 0 11045138.588 -11268892.294 20118508.427 10 0 60404 84600.00000 0 10717156.218 -8735892.380 21509122.933 10 0 60404 85500.00000 0 10571995.631 -6040726.841 22485026.119 10 0 60405 0.00000 0 10628844.865 -3249135.943 23027433.350 10 0 60405 900.00000 0 10894980.509 -430027.758 23125852.912 10 0 60405 1800.00000 0 11365411.447 2347118.823 22778285.458 10 0 60405 2700.00000 0 12023046.874 5014875.086 21991269.521 10 0 60405 3600.00000 0 12839382.563 7510398.811 20779770.966 10 0 60405 4500.00000 0 13775678.711 9777785.422 19166917.586 10 0 60405 5400.00000 0 14784582.779 11770138.672 17183581.903 10 0 60405 6300.00000 0 15812132.507 13451276.452 14867817.620 10 0 60405 7200.00000 0 16800058.268 14797001.300 12264157.730 10 0 60405 8100.00000 0 17688290.931 15795882.206 9422784.832 10 0 60405 9000.00000 0 18417571.939 16449513.803 6398586.854 10 0 60405 9900.00000 0 18932056.844 16772240.141 3250114.099 10 0 60405 10800.00000 0 19181802.580 16790352.433 38456.043 10 0 60405 11700.00000 0 19125032.306 16540792.292 -3173941.349 10 0 60405 12600.00000 0 18730079.888 16069413.252 -6324494.950 10 0 60405 13500.00000 0 17976928.686 15428872.721 -9351716.084 10 0 60405 14400.00000 0 16858275.861 14676243.055 -12196429.054 10 0 60405 15300.00000 0 15380073.285 13870443.326 -14802950.810 10 0 60405 16200.00000 0 13561518.444 13069601.880 -17120206.364 10 0 60405 17100.00000 0 11434492.433 12328463.453 -19102755.582 10 0 60405 18000.00000 0 9042466.292 11695953.258 -20711708.727 10 0 60405 18900.00000 0 6438920.157 11213003.931 -21915510.518 10 0 60405 19800.00000 0 3685341.164 10910739.950 -22690575.475 10 0 60405 20700.00000 0 848884.504 10809098.561 -23021760.628 10 0 60405 21600.00000 0 -2000203.190 10915947.057 -22902665.567 10 0 60405 22500.00000 0 -4791288.727 11226734.401 -22335753.680 10 0 60405 23400.00000 0 -7456070.626 11724691.733 -21332292.599 10 0 60405 24300.00000 0 -9931195.640 12381572.148 -19912115.913 10 0 60405 25200.00000 0 -12160663.235 13158896.702 -18103212.219 10 0 60405 26100.00000 0 -14097917.263 14009651.595 -15941151.301 10 0 60405 27000.00000 0 -15707538.120 14880362.188 -13468360.727 10 0 60405 27900.00000 0 -16966466.301 15713453.571 -10733269.188 10 0 60405 28800.00000 0 -17864708.751 16449795.584 -7789335.570 10 0 60405 29700.00000 0 -18405501.837 17031322.936 -4693984.823 10 0 60405 30600.00000 0 -18604928.024 17403618.641 -1507473.225 10 0 60405 31500.00000 0 -18491006.462 17518351.430 1708293.336 10 0 60405 32400.00000 0 -18102299.646 17335464.811 4890964.116 10 0 60405 33300.00000 0 -17486098.129 16825026.808 7978947.563 10 0 60405 34200.00000 0 -16696262.248 15968664.317 10912591.561 10 0 60405 35100.00000 0 -15790813.159 14760523.895 13635318.004 10 0 60405 36000.00000 0 -14829374.918 13207720.767 16094691.399 10 0 60405 36900.00000 0 -13870574.381 11330259.021 18243402.947 10 0 60405 37800.00000 0 -12969506.436 9160427.503 20040153.670 10 0 60405 38700.00000 0 -12175368.563 6741696.921 21450422.276 10 0 60405 39600.00000 0 -11529361.077 4127163.506 22447105.598 10 0 60405 40500.00000 0 -11062938.259 1377602.271 23011021.701 10 0 60405 41400.00000 0 -10796481.092 -1440791.810 23131267.843 10 0 60405 42300.00000 0 -10738445.404 -4258884.250 22805427.662 10 0 60405 43200.00000 0 -10885020.159 -7007203.937 22039624.026 10 0 60405 44100.00000 0 -11220310.343 -9618564.395 20848416.113 10 0 60405 45000.00000 0 -11717037.967 -12030598.177 19254541.491 10 0 60405 45900.00000 0 -12337733.864 -14188102.186 17288506.178 10 0 60405 46800.00000 0 -13036373.021 -16045098.592 14988028.057 10 0 60405 47700.00000 0 -13760387.761 -17566526.646 12397341.485 10 0 60405 48600.00000 0 -14452977.061 -18729494.927 9566373.561 10 0 60405 49500.00000 0 -15055617.277 -19524040.749 6549805.101 10 0 60405 50400.00000 0 -15510670.055 -19953363.200 3406032.123 10 0 60405 51300.00000 0 -15763978.018 -20033517.774 196046.134 10 0 60405 52200.00000 0 -15767338.001 -19792582.983 -3017746.119 10 0 60405 53100.00000 0 -15480745.553 -19269331.762 -6172740.676 10 0 60405 54000.00000 0 -14874313.051 -18511461.921 -9207367.895 10 0 60405 54900.00000 0 -13929776.769 -17573459.265 -12062312.142 10 0 60405 55800.00000 0 -12641525.245 -16514183.561 -14681693.882 10 0 60405 56700.00000 0 -11017101.526 -15394280.139 -17014188.736 10 0 60405 57600.00000 0 -9077154.359 -14273528.149 -19014059.099 10 0 60405 58500.00000 0 -6854837.398 -13208239.836 -20642075.574 10 0 60405 59400.00000 0 -4394679.512 -12248823.304 -21866307.897 10 0 60405 60300.00000 0 -1750972.507 -11437614.342 -22662767.924 10 0 60405 61200.00000 0 1014256.256 -10807071.198 -23015890.634 10 0 60405 62100.00000 0 3833600.694 -10378410.219 -22918842.884 10 0 60405 63000.00000 0 6636862.314 -10160740.850 -22373653.578 10 0 60405 63900.00000 0 9353756.107 -10150736.491 -21391163.036 10 0 60405 64800.00000 0 11916621.221 -10332854.153 -19990793.426 10 0 60405 65700.00000 0 14263021.740 -10680091.809 -18200146.101 10 0 60405 66600.00000 0 16338128.033 -11155249.018 -16054435.476 10 0 60405 67500.00000 0 18096779.144 -11712634.623 -13595772.564 10 0 60405 68400.00000 0 19505140.947 -12300146.344 -10872314.368 10 0 60405 69300.00000 0 20541892.540 -12861631.486 -7937298.002 10 0 60405 70200.00000 0 21198894.026 -13339426.509 -4847980.557 10 0 60405 71100.00000 0 21481311.146 -13676966.360 -1664507.226 10 0 60405 72000.00000 0 21407195.434 -13821352.294 1551268.697 10 0 60405 72900.00000 0 21006541.400 -13725769.681 4736990.016 10 0 60405 73800.00000 0 20319864.015 -13351654.461 7831000.268 10 0 60405 74700.00000 0 19396359.184 -12670518.356 10773525.641 10 0 60405 75600.00000 0 18291726.580 -11665357.870 13507812.275 10 0 60405 76500.00000 0 17065747.229 -10331589.897 15981198.533 10 0 60405 77400.00000 0 15779717.348 -8677476.559 18146103.623 10 0 60405 78300.00000 0 14493844.840 -6724022.920 19960916.019 10 0 60405 79200.00000 0 13264715.391 -4504352.509 21390767.263 10 0 60405 80100.00000 0 12142931.559 -2062586.515 22408178.892 10 0 60405 81000.00000 0 11171020.581 547727.916 22993572.440 10 0 60405 81900.00000 0 10381695.525 3265577.143 23135634.645 10 0 60405 82800.00000 0 9796539.999 6024749.814 22831532.082 10 0 60405 83700.00000 0 9425169.681 8756324.453 22086971.586 10 0 60405 84600.00000 0 9264905.004 11391276.478 20916104.933 10 0 60405 85500.00000 0 9300968.918 13863100.193 19341278.407 10 0 60406 0.00000 0 9507202.705 16110340.019 17392630.359 10 0 60406 900.00000 0 9847272.005 18078929.501 15107540.855 10 0 60406 1800.00000 0 10276314.704 19724239.333 12529943.874 10 0 60406 2700.00000 0 10742964.538 21012753.568 9709508.875 10 0 60406 3600.00000 0 11191667.500 21923300.358 6700707.199 10 0 60406 4500.00000 0 11565195.476 22447785.446 3561778.021 10 0 60406 5400.00000 0 11807252.031 22591395.263 353612.174 10 0 60406 6300.00000 0 11865060.292 22372258.474 -2861425.598 10 0 60406 7200.00000 0 11691822.319 21820577.622 -6020713.302 10 0 60406 8100.00000 0 11248943.677 20977265.126 -9062603.052 10 0 60406 9000.00000 0 10507925.921 19892139.510 -11927641.858 10 0 60406 9900.00000 0 9451843.195 18621757.097 -14559756.070 10 0 60406 10800.00000 0 8076336.455 17226970.847 -16907374.062 10 0 60406 11700.00000 0 6390079.383 15770320.341 -18924462.653 10 0 60406 12600.00000 0 4414692.878 14313364.885 -20571454.448 10 0 60406 13500.00000 0 2184108.960 12914074.522 -21816045.618 10 0 60406 14400.00000 0 -256590.961 11624391.473 -22633846.552 10 0 60406 15300.00000 0 -2852815.462 10488067.176 -23008871.124 10 0 60406 16200.00000 0 -5542511.185 9538867.967 -22933854.120 10 0 60406 17100.00000 0 -8258532.904 8799226.159 -22410390.291 10 0 60406 18000.00000 0 -10931234.808 8279393.649 -21448892.616 10 0 60406 18900.00000 0 -13491172.877 7977132.969 -20068371.409 10 0 60406 19800.00000 0 -15871803.677 7877957.158 -18296039.970 10 0 60406 20700.00000 0 -18012065.419 7955905.858 -16166756.195 10 0 60406 21600.00000 0 -19858732.741 8174821.828 -13722313.111 10 0 60406 22500.00000 0 -21368446.914 8490070.610 -11010594.388 10 0 60406 23400.00000 0 -22509337.659 8850627.344 -8084613.601 10 0 60406 24300.00000 0 -23262170.715 9201439.492 -5001458.113 10 0 60406 25200.00000 0 -23620975.972 9485963.126 -1821160.095 10 0 60406 26100.00000 0 -23593133.258 9648763.895 1394481.768 10 0 60406 27000.00000 0 -23198915.885 9638071.934 4583105.940 10 0 60406 27900.00000 0 -22470514.781 9408182.982 7682993.264 10 0 60406 28800.00000 0 -21450587.330 8921605.284 10634250.580 10 0 60406 29700.00000 0 -20190394.304 8150863.390 13379950.725 10 0 60406 30600.00000 0 -18747604.503 7079884.845 15867208.444 10 0 60406 31500.00000 0 -17183859.489 5704913.471 18048173.487 10 0 60406 32400.00000 0 -15562199.687 4034912.623 19880924.257 10 0 60406 33300.00000 0 -13944457.752 2091442.597 21330247.480 10 0 60406 34200.00000 0 -12388725.655 -91982.423 22368291.533 10 0 60406 35100.00000 0 -10946998.259 -2471031.790 22975083.303 10 0 60406 36000.00000 0 -9663088.552 -4992144.573 23138900.583 10 0 60406 36900.00000 0 -8570898.648 -7594501.133 22856494.127 10 0 60406 37800.00000 0 -7693116.310 -10212301.545 22133155.633 10 0 60406 38700.00000 0 -7040389.830 -12777260.019 20982629.987 10 0 60406 39600.00000 0 -6611015.181 -15221215.553 19426872.329 10 0 60406 40500.00000 0 -6391148.927 -17478753.910 17495652.700 10 0 60406 41400.00000 0 -6355539.273 -19489734.863 15226013.404 10 0 60406 42300.00000 0 -6468746.693 -21201621.492 12661586.696 10 0 60406 43200.00000 0 -6686805.232 -22571515.411 9851782.997 10 0 60406 44100.00000 0 -6959257.098 -23567812.757 6850862.449 10 0 60406 45000.00000 0 -7231476.915 -24171410.455 3716905.355 10 0 60406 45900.00000 0 -7447189.020 -24376410.100 510699.565 10 0 60406 46800.00000 0 -7551071.959 -24190287.265 -2705434.761 10 0 60406 47700.00000 0 -7491339.482 -23633516.222 -5868860.424 10 0 60406 48600.00000 0 -7222187.119 -22738663.108 -8917854.362 10 0 60406 49500.00000 0 -6705998.140 -21548983.484 -11792829.489 10 0 60406 50400.00000 0 -5915212.084 -20116581.863 -14437521.443 10 0 60406 51300.00000 0 -4833772.915 -18500210.186 -16800114.786 10 0 60406 52200.00000 0 -3458091.592 -16762798.406 -18834284.115 10 0 60406 53100.00000 0 -1797478.668 -14968822.461 -20500127.190 10 0 60406 54000.00000 0 125974.497 -13181622.399 -21764969.442 10 0 60406 54900.00000 0 2278063.258 -11460785.846 -22604022.185 10 0 60406 55800.00000 0 4613659.253 -9859709.273 -23000880.087 10 0 60406 56700.00000 0 7078372.439 -8423441.657 -22947847.246 10 0 60406 57600.00000 0 9610615.394 -7186902.699 -22446085.131 10 0 60406 58500.00000 0 12143982.111 -6173551.110 -21505579.748 10 0 60406 59400.00000 0 14609839.986 -5394558.630 -20144929.470 10 0 60406 60300.00000 0 16940024.691 -4848523.140 -18390959.001 10 0 60406 61200.00000 0 19069523.449 -4521730.653 -16278168.714 10 0 60406 62100.00000 0 20939033.248 -4388952.075 -13848032.189 10 0 60406 63000.00000 0 22497286.445 -4414737.611 -11148157.837 10 0 60406 63900.00000 0 23703046.728 -4555150.457 -8231333.286 10 0 60406 64800.00000 0 24526693.168 -4759863.018 -5154473.350 10 0 60406 65700.00000 0 24951328.168 -4974523.944 -1977494.005 10 0 60406 66600.00000 0 24973365.719 -5143293.584 1237864.097 10 0 60406 67500.00000 0 24602578.665 -5211439.194 4429238.628 10 0 60406 68400.00000 0 23861606.470 -5127879.700 7534851.290 10 0 60406 69300.00000 0 22784947.374 -4847572.975 10494693.009 10 0 60406 70200.00000 0 21417479.928 -4333646.135 13251666.544 10 0 60406 71100.00000 0 19812577.705 -3559180.792 15752665.972 10 0 60406 72000.00000 0 18029896.985 -2508580.187 17949574.226 10 0 60406 72900.00000 0 16132929.691 -1178462.673 19800161.931 10 0 60406 73800.00000 0 14186422.476 421954.466 21268872.939 10 0 60406 74700.00000 0 12253767.449 2270996.122 22327484.055 10 0 60406 75600.00000 0 10394470.450 4335189.666 22955628.736 10 0 60406 76500.00000 0 8661799.106 6570418.075 23141176.651 10 0 60406 77400.00000 0 7100705.402 8923519.961 22880463.151 10 0 60406 78300.00000 0 5746106.440 11334272.907 22178364.779 10 0 60406 79200.00000 0 4621592.735 13737681.198 21048219.095 10 0 60406 80100.00000 0 3738616.636 16066476.635 19511589.230 10 0 60406 81000.00000 0 3096194.321 18253732.127 17597875.858 10 0 60406 81900.00000 0 2681134.445 20235482.571 15343781.554 10 0 60406 82800.00000 0 2468785.294 21953246.263 12792635.062 10 0 60406 83700.00000 0 2424271.130 23356343.109 9993585.539 10 0 60406 84600.00000 0 2504168.018 24403913.101 7000679.438 10 0 60406 85500.00000 0 2658550.796 25066549.731 3871835.483 10 0 60407 0.00000 0 2833326.549 25327478.030 667735.949 10 0 60407 900.00000 0 2972757.110 25183225.264 -2549347.146 10 0 60407 1800.00000 0 3022063.702 24643752.763 -5716764.123 10 0 60407 2700.00000 0 2930002.742 23732040.700 -8772719.701 10 0 60407 3600.00000 0 2651301.452 22483140.031 -11657495.519 10 0 60407 4500.00000 0 2148847.246 20942729.530 -14314639.122 10 0 60407 5400.00000 0 1395534.639 19165237.316 -16692093.643 10 0 60407 6300.00000 0 375687.654 17211605.532 -18743243.585 10 0 60407 7200.00000 0 -914006.224 15146792.874 -20427853.703 10 0 60407 8100.00000 0 -2464093.397 13037121.383 -21712880.260 10 0 60407 9000.00000 0 -4252502.539 10947580.973 -22573136.774 10 0 60407 9900.00000 0 -6245239.631 8939207.211 -22991799.661 10 0 60407 10800.00000 0 -8397601.297 7066644.537 -22960742.921 10 0 60407 11700.00000 0 -10655855.405 5375998.944 -22480694.924 10 0 60407 12600.00000 0 -12959317.474 3903071.233 -21561214.436 10 0 60407 13500.00000 0 -15242734.269 2672045.062 -20220487.161 10 0 60407 14400.00000 0 -17438872.834 1694683.928 -18484948.034 10 0 60407 15300.00000 0 -19481204.497 970068.848 -16388738.347 10 0 60407 16200.00000 0 -21306569.813 484884.922 -13973010.363 10 0 60407 17100.00000 0 -22857711.667 214241.143 -11285095.142 10 0 60407 18000.00000 0 -24085570.031 122985.055 -8377552.158 10 0 60407 18900.00000 0 -24951242.741 167452.820 -5307121.401 10 0 60407 19800.00000 0 -25427531.515 297577.201 -2133600.352 10 0 60407 20700.00000 0 -25500010.602 459261.358 1081330.674 10 0 60407 21600.00000 0 -25167576.075 596915.977 4275310.869 10 0 60407 22500.00000 0 -24442455.927 656051.305 7386505.131 10 0 60407 23400.00000 0 -23349683.663 585814.395 10354790.818 10 0 60407 24300.00000 0 -21926060.308 341365.232 13122902.958 10 0 60407 25200.00000 0 -20218650.401 -114007.018 15637517.267 10 0 60407 26100.00000 0 -18282876.172 -807114.789 17850252.058 10 0 60407 27000.00000 0 -16180289.714 -1753522.261 19718572.235 10 0 60407 27900.00000 0 -13976115.223 -2956669.697 21206580.601 10 0 60407 28800.00000 0 -11736661.889 -4407507.358 22285683.945 10 0 60407 29700.00000 0 -9526712.457 -6084653.823 22935123.542 10 0 60407 30600.00000 0 -7406992.880 -7955072.602 23142361.880 10 0 60407 31500.00000 0 -5431824.913 -9975240.287 22903319.530 10 0 60407 32400.00000 0 -3647055.994 -12092760.027 22222458.209 10 0 60407 33300.00000 0 -2088349.750 -14248356.308 21112708.190 10 0 60407 34200.00000 0 -779906.313 -16378171.599 19595240.363 10 0 60407 35100.00000 0 266335.319 -18416272.991 17699085.520 10 0 60407 36000.00000 0 1050979.686 -20297267.817 15460605.712 10 0 60407 36900.00000 0 1586929.381 -21958922.018 12922825.108 10 0 60407 37800.00000 0 1898620.409 -23344673.828 10134630.252 10 0 60407 38700.00000 0 2020768.465 -24405938.489 7149852.305 10 0 60407 39600.00000 0 1996676.691 -25104107.118 4026246.567 10 0 60407 40500.00000 0 1876174.303 -25412154.396 824387.099 10 0 60407 41400.00000 0 1713271.732 -25315785.163 -2393503.335 10 0 60407 42300.00000 0 1563630.833 -24814068.614 -5564765.608 10 0 60407 43200.00000 0 1481957.633 -23919530.068 -8627534.862 10 0 60407 44100.00000 0 1519429.493 -22657693.145 -11521964.279 10 0 60407 45000.00000 0 1721268.013 -21066088.794 -14191416.255 10 0 60407 45900.00000 0 2124563.637 -19192770.813 -16583595.489 10 0 60407 46800.00000 0 2756447.634 -17094399.137 -18651599.350 10 0 60407 47700.00000 0 3632692.513 -14833971.337 -20354862.413 10 0 60407 48600.00000 0 4756803.541 -12478298.426 -21659974.335 10 0 60407 49500.00000 0 6119642.693 -10095332.440 -22541353.050 10 0 60407 50400.00000 0 7699603.145 -7751459.895 -22981758.516 10 0 60407 51300.00000 0 9463328.191 -5508876.743 -22972635.967 10 0 60407 52200.00000 0 11366944.755 -3423156.654 -22514281.530 10 0 60407 53100.00000 0 13357758.974 -1541115.947 -21615827.137 10 0 60407 54000.00000 0 15376341.347 100934.885 -20295045.775 10 0 60407 54900.00000 0 17358912.063 1478480.189 -18577982.120 10 0 60407 55800.00000 0 19239924.291 2579576.125 -16498417.466 10 0 60407 56700.00000 0 20954735.079 3405085.467 -14097181.391 10 0 60407 57600.00000 0 22442250.181 3968363.674 -11421325.804 10 0 60407 58500.00000 0 23647430.825 4294413.336 -8523179.786 10 0 60407 59400.00000 0 24523557.050 4418546.734 -5459305.885 10 0 60407 60300.00000 0 25034153.342 4384616.938 -2289380.151 10 0 60407 61200.00000 0 25154497.262 4242895.697 924980.593 10 0 60407 62100.00000 0 24872650.041 4047690.551 4121420.330 10 0 60407 63000.00000 0 24189968.642 3854803.733 7238050.411 10 0 60407 63900.00000 0 23121080.745 3718941.015 10214637.799 10 0 60407 64800.00000 0 21693326.472 3691179.685 12993752.781 10 0 60407 65700.00000 0 19945692.515 3816601.363 15521855.473 10 0 60407 66600.00000 0 17927284.787 4132187.613 17750302.088 10 0 60407 67500.00000 0 15695403.936 4665064.769 19636254.038 10 0 60407 68400.00000 0 13313303.498 5431169.580 21143475.045 10 0 60407 69300.00000 0 10847722.551 6434389.824 22243003.548 10 0 60407 70200.00000 0 8366293.080 7666214.777 22913689.995 10 0 60407 71100.00000 0 5934926.699 9105909.857 23142590.696 10 0 60407 72000.00000 0 3615285.817 10721208.927 22925212.060 10 0 60407 72900.00000 0 1462440.796 12469497.086 22265601.176 10 0 60407 73800.00000 0 -477192.816 14299437.300 21176280.777 10 0 60407 74700.00000 0 -2167553.712 16152976.283 19678028.805 10 0 60407 75600.00000 0 -3584201.960 17967649.590 17799505.023 10 0 60407 76500.00000 0 -4715101.756 19679093.304 15576729.420 10 0 60407 77400.00000 0 -5560886.869 21223660.519 13052419.690 10 0 60407 78300.00000 0 -6134596.590 22541035.598 10275197.572 10 0 60407 79200.00000 0 -6460891.519 23576738.084 7298676.495 10 0 60407 80100.00000 0 -6574780.062 24284411.488 4180445.690 10 0 60407 81000.00000 0 -6519907.211 24627799.810 980968.490 10 0 60407 81900.00000 0 -6346476.061 24582326.684 -2237585.091 10 0 60407 82800.00000 0 -6108888.839 24136207.735 -5412549.173 10 0 60407 83700.00000 0 -5863207.020 23291045.873 -8481992.293 10 0 60407 84600.00000 0 -5664538.887 22061880.886 -11385942.061 10 0 60407 85500.00000 0 -5564466.896 20476687.853 -14067578.466 99